This is the latest recevied weather packets stored in our database for station/object W8KVG. If no packets are shown the sender has not sent any weather packets the latest 10 day(s).
| Time | Temp. | Humidity | Pressure | Rain* | Wind** | Luminosity | Snow |
|---|---|---|---|---|---|---|---|
| 1778109894 | 11.11° C | 63% | 1011.5 hPa | 0 mm | - | 20 W/m² | - |
| 1778109590 | 11.11° C | 63% | 1011.5 hPa | 0 mm | - | 21 W/m² | - |
| 1778109288 | 11.67° C | 65% | 1011.6 hPa | 0 mm | - | 16 W/m² | - |
| 1778108985 | 11.67° C | 66% | 1011.5 hPa | 0 mm | - | 16 W/m² | - |
| 1778108681 | 11.67° C | 64% | 1011.4 hPa | 0 mm | - | 22 W/m² | - |
| 1778108378 | 11.67° C | 66% | 1011.6 hPa | 0 mm | - | 26 W/m² | - |
| 1778108075 | 11.67° C | 65% | 1011.4 hPa | 0 mm | - | 30 W/m² | - |
| 1778107772 | 12.22° C | 66% | 1011.2 hPa | 0 mm | - | 58 W/m² | - |
| 1778107469 | 11.67° C | 64% | 1011.1 hPa | 0 mm | - | 60 W/m² | - |
| 1778107166 | 12.22° C | 65% | 1011 hPa | 0 mm | - | 43 W/m² | - |
| 1778106861 | 12.22° C | 67% | 1011.1 hPa | 0 mm | - | 40 W/m² | - |
| 1778106559 | 12.22° C | 66% | 1011 hPa | 0 mm | - | 45 W/m² | - |
| 1778106255 | 12.22° C | 64% | 1010.9 hPa | 0 mm | - | 48 W/m² | - |
| 1778105952 | 12.22° C | 68% | 1010.7 hPa | 0 mm | - | 56 W/m² | - |
| 1778105649 | 12.22° C | 65% | 1010.9 hPa | 0 mm | - | 44 W/m² | - |
| 1778105347 | 12.78° C | 66% | 1010.8 hPa | 0 mm | - | 59 W/m² | - |
| 1778105042 | 12.78° C | 65% | 1010.6 hPa | 0 mm | - | 68 W/m² | - |
| 1778104739 | 13.33° C | 65% | 1010.7 hPa | 0 mm | - | 73 W/m² | - |
| 1778104435 | 12.78° C | 65% | 1010.6 hPa | 0 mm | - | 111 W/m² | - |
| 1778104131 | 12.78° C | 69% | 1010.5 hPa | 0 mm | - | 99 W/m² | - |
| 1778103828 | 12.78° C | 66% | 1010.4 hPa | 0 mm | - | 84 W/m² | - |
| 1778103526 | 12.78° C | 67% | 1010.6 hPa | 0 mm | - | 86 W/m² | - |
| 1778103223 | 12.78° C | 67% | 1010.4 hPa | 0 mm | - | 65 W/m² | - |
| 1778102920 | 12.78° C | 68% | 1010.2 hPa | 0 mm | - | 55 W/m² | - |
| 1778102616 | 12.78° C | 67% | 1010.2 hPa | 0 mm | - | 120 W/m² | - |
* Rain latest hour (hover to see other rain measurements)
** Current wind speed in m/s (hover to see current wind gust speed)